EW7108 Weather Reports


Display with metric or nautical units.
time (UTC)temp
F
wind
direction
speed
MPH
gust
MPH
rain 1hr
in
rain 24hr
in
rain mn
in
humidity
%
barometer
mb
20180821191515 92 180 0.0 3.0 0.00 0.00 0.00 48 1018.3
20180821191012 91 23 1.0 3.0 0.00 0.00 0.00 49 1018.6
20180821190508 91 23 0.0 3.0 0.00 0.00 0.00 48 1018.3
20180821190004 91 270 1.0 6.0 0.00 0.00 0.00 45 1018.6
20180821185500 89 90 3.0 6.0 0.00 0.00 0.00 50 1018.6
20180821184957 89 23 2.0 5.0 0.00 0.00 0.00 49 1018.3
20180821184453 89 113 1.0 4.0 0.00 0.00 0.00 49 1018.6
20180821183950 88 180 2.0 5.0 0.00 0.00 0.00 51 1018.6
20180821183446 89 45 1.0 3.0 0.00 0.00 0.00 50 1018.6
20180821182942 89 23 1.0 2.0 0.00 0.00 0.00 50 1018.6
20180821182438 88 23 1.0 2.0 0.00 0.00 0.00 53 1018.6
20180821181935 87 270 0.0 3.0 0.00 0.00 0.00 51 1018.3
20180821181429 88 90 1.0 3.0 0.00 0.00 0.00 53 1018.6
20180821180926 88 45 1.0 4.0 0.00 0.00 0.00 54 1018.6
20180821180423 87 90 1.0 4.0 0.00 0.00 0.00 51 1018.6
20180821175920 87 23 2.0 4.0 0.00 0.00 0.00 54 1018.6
20180821175416 86 113 2.0 4.0 0.00 0.00 0.00 55 1018.6
20180821174912 87 45 1.0 2.0 0.00 0.00 0.00 53 1019.0
20180821174408 87 203 1.0 3.0 0.00 0.00 0.00 53 1019.0
20180821173905 87 203 2.0 3.0 0.00 0.00 0.00 53 1019.0
20180821173359 86 338 0.0 4.0 0.00 0.00 0.00 54 1018.6
20180821172857 85 45 2.0 4.0 0.00 0.00 0.00 56 1018.6
20180821172353 86 225 1.0 3.0 0.00 0.00 0.00 56 1018.6
20180821171851 86 180 0.0 2.0 0.00 0.00 0.00 55 1019.0
20180821171345 85 225 0.0 2.0 0.00 0.00 0.00 58 1019.0
20180821170842 85 338 1.0 3.0 0.00 0.00 0.00 56 1019.0
20180821170339 85 203 1.0 3.0 0.00 0.00 0.00 56 1019.3
20180821165836 85 270 1.0 2.0 0.00 0.00 0.00 59 1019.3
20180821165329 85 0 1.0 2.0 0.00 0.00 0.00 58 1019.6
20180821164828 84 23 0.0 2.0 0.00 0.00 0.00 59 1019.3
20180821164323 84 180 0.0 2.0 0.00 0.00 0.00 61 1019.6
20180821163821 84 45 0.0 4.0 0.00 0.00 0.00 59 1019.6
20180821163316 83 23 2.0 4.0 0.00 0.00 0.00 59 1019.6
20180821162812 83 0 1.0 2.0 0.00 0.00 0.00 61 1019.3
20180821162308 83 338 1.0 4.0 0.00 0.00 0.00 61 1019.3
20180821161806 83 270 1.0 4.0 0.00 0.00 0.00 61 1019.3
20180821161259 83 270 1.0 4.0 0.00 0.00 0.00 61 1019.3
20180821160757 82 45 2.0 4.0 0.00 0.00 0.00 63 1019.3
20180821160254 82 23 2.0 4.0 0.00 0.00 0.00 61 1019.3
20180821155751 82 248 2.0 4.0 0.00 0.00 0.00 63 1019.3
20180821155246 82 270 1.0 3.0 0.00 0.00 0.00 63 1019.3
20180821154742 81 23 0.0 2.0 0.00 0.00 0.00 63 1019.3
20180821154238 81 90 1.0 2.0 0.00 0.00 0.00 63 1019.3
20180821153736 81 315 0.0 1.0 0.00 0.00 0.00 63 1019.3
20180821153228 81 338 0.0 1.0 0.00 0.00 0.00 65 1019.3
20180821152723 80 203 0.0 1.0 0.00 0.00 0.00 66 1019.3
20180821152222 80 225 0.0 2.0 0.00 0.00 0.00 65 1019.3
20180821151721 80 45 0.0 2.0 0.00 0.00 0.00 66 1019.0
20180821151214 80 0 0.0 2.0 0.00 0.00 0.00 65 1019.0
20180821150710 79 68 0.0 2.0 0.00 0.00 0.00 65 1019.0
20180821150206 79 338 0.0 3.0 0.00 0.00 0.00 69 1019.0
20180821145704 79 23 1.0 3.0 0.00 0.00 0.00 69 1019.0
20180821145159 78 203 1.0 2.0 0.00 0.00 0.00 70 1019.0
20180821144655 78 180 1.0 2.0 0.00 0.00 0.00 70 1019.0
20180821144146 77 0 0.0 2.0 0.00 0.00 0.00 71 1018.6
20180821143648 77 0 0.0 2.0 0.00 0.00 0.00 73 1018.6
20180821143142 76 90 0.0 1.0 0.00 0.00 0.00 74 1018.6
20180821142639 76 0 0.0 1.0 0.00 0.00 0.00 75 1019.0
20180821142134 76 203 0.0 0.0 0.00 0.00 0.00 76 1018.6
20180821141632 75 270 0.0 0.0 0.00 0.00 0.00 78 1018.6
20180821141126 75 270 0.0 0.0 0.00 0.00 0.00 78 1019.0
20180821140622 74 338 0.0 1.0 0.00 0.00 0.00 78 1018.6
20180821140116 74 203 0.0 1.0 0.00 0.00 0.00 80 1018.6
20180821135612 74 203 0.0 0.0 0.00 0.00 0.00 80 1018.6
20180821135111 73 293 0.0 0.0 0.00 0.00 0.00 80 1018.6
20180821134606 73 293 0.0 0.0 0.00 0.00 0.00 81 1018.6
20180821134102 72 270 0.0 0.0 0.00 0.00 0.00 81 1018.3
20180821133559 72 270 0.0 1.0 0.00 0.00 0.00 81 1018.3
20180821133058 72 315 0.0 1.0 0.00 0.00 0.00 81 1018.3
20180821132557 71 270 0.0 1.0 0.00 0.00 0.00 81 1018.3
20180821132054 71 270 0.0 1.0 0.00 0.00 0.00 81 1018.6
20180821131550 71 315 0.0 0.0 0.00 0.00 0.00 83 1018.6
20180821131047 71 225 0.0 2.0 0.00 0.00 0.00 83 1018.3
20180821130543 71 338 0.0 2.0 0.00 0.00 0.00 83 1018.6
20180821130039 71 180 0.0 0.0 0.00 0.00 0.00 83 1018.3
20180821125534 70 180 0.0 0.0 0.00 0.00 0.00 83 1018.3
20180821125028 70 180 0.0 0.0 0.00 0.00 0.00 83 1018.3
20180821124528 70 135 0.0 0.0 0.00 0.00 0.00 83 1018.3
20180821124024 70 203 0.0 0.0 0.00 0.00 0.00 83 1018.3
20180821123520 70 180 0.0 0.0 0.00 0.00 0.00 83 1018.0
20180821123017 70 203 0.0 0.0 0.00 0.00 0.00 83 1018.0
20180821122512 70 203 0.0 0.0 0.00 0.00 0.00 83 1017.6
20180821122010 70 225 0.0 0.0 0.00 0.00 0.00 83 1017.3
20180821121511 70 270 0.0 0.0 0.00 0.00 0.00 83 1017.6
20180821121006 70 203 0.0 0.0 0.00 0.00 0.00 83 1017.6
20180821120502 70 248 0.0 0.0 0.00 0.00 0.00 83 1017.6
20180821115954 70 248 0.0 0.0 0.00 0.00 0.00 83 1017.6
20180821115451 70 203 0.0 0.0 0.00 0.00 0.00 83 1017.6
20180821114947 70 225 0.0 0.0 0.00 0.00 0.00 83 1017.3
20180821114444 70 203 0.0 0.0 0.00 0.00 0.00 83 1017.3
20180821113939 70 203 0.0 0.0 0.00 0.00 0.00 83 1017.3
20180821113435 70 225 0.0 0.0 0.00 0.00 0.00 83 1017.3
20180821112928 70 225 0.0 0.0 0.00 0.00 0.00 83 1016.9
20180821112429 71 225 0.0 0.0 0.00 0.00 0.00 83 1016.9
20180821111924 71 225 0.0 0.0 0.00 0.00 0.00 83 1017.3
20180821111420 71 225 0.0 0.0 0.00 0.00 0.00 83 1017.3
20180821110917 71 225 0.0 0.0 0.00 0.00 0.00 81 1016.9
20180821110424 71 225 0.0 0.0 0.00 0.00 0.00 83 1016.9
20180821105909 71 270 0.0 0.0 0.00 0.00 0.00 83 1016.9
20180821105404 71 248 0.0 0.0 0.00 0.00 0.00 83 1016.9
20180821104901 71 225 0.0 0.0 0.00 0.00 0.00 83 1016.9
20180821104358 71 225 0.0 0.0 0.00 0.00 0.00 83 1016.9
20180821103854 71 248 0.0 0.0 0.00 0.00 0.00 81 1016.9
20180821103351 71 338 0.0 0.0 0.00 0.00 0.00 81 1016.9
20180821102848 71 315 0.0 0.0 0.00 0.00 0.00 81 1016.9
20180821102343 71 225 0.0 0.0 0.00 0.00 0.00 81 1017.3
20180821101838 71 248 0.0 0.0 0.00 0.00 0.00 81 1016.9
20180821101334 71 225 0.0 0.0 0.00 0.00 0.00 81 1016.9
20180821100830 71 248 0.0 0.0 0.00 0.00 0.00 80 1016.9
20180821100323 71 270 0.0 0.0 0.00 0.00 0.00 80 1016.9
20180821095823 72 248 0.0 0.0 0.00 0.00 0.00 80 1016.9
20180821095319 72 248 0.0 0.0 0.00 0.00 0.00 79 1016.9
20180821094815 72 248 0.0 0.0 0.00 0.00 0.00 79 1016.9
20180821094311 72 270 0.0 0.0 0.00 0.00 0.00 79 1016.6
20180821093807 72 270 0.0 0.0 0.00 0.00 0.00 79 1016.9
20180821093303 73 203 0.0 0.0 0.00 0.00 0.00 78 1016.6
20180821092800 73 203 0.0 0.0 0.00 0.00 0.00 78 1016.6
20180821092252 73 225 0.0 0.0 0.00 0.00 0.00 76 1016.6
20180821091747 73 225 0.0 0.0 0.00 0.00 0.00 76 1016.6
20180821091247 73 225 0.0 1.0 0.00 0.00 0.00 75 1016.6
20180821090744 73 23 0.0 1.0 0.00 0.00 0.00 75 1016.6
20180821090239 74 270 0.0 0.0 0.00 0.00 0.00 75 1016.6
20180821085735 74 248 0.0 1.0 0.00 0.00 0.00 75 1016.6
20180821085231 74 23 0.0 4.0 0.00 0.00 0.00 75 1016.3
20180821084729 74 315 0.0 4.0 0.00 0.00 0.00 75 1016.3
20180821084222 74 293 1.0 4.0 0.00 0.00 0.00 75 1016.3
20180821083716 74 23 1.0 2.0 0.00 0.00 0.00 75 1016.3
20180821083215 74 0 0.0 2.0 0.00 0.00 0.00 75 1016.3
20180821082712 74 0 1.0 2.0 0.00 0.00 0.00 75 1016.3
20180821082208 74 23 1.0 2.0 0.00 0.00 0.00 75 1016.3
20180821081703 74 23 0.0 2.0 0.00 0.00 0.00 75 1016.3
20180821081159 74 23 0.0 2.0 0.00 0.00 0.00 75 1016.3
20180821080657 74 0 0.0 2.0 0.00 0.00 0.00 75 1016.3
20180821080159 74 293 0.0 1.0 0.00 0.00 0.00 75 1016.3
20180821075655 74 0 0.0 1.0 0.00 0.00 0.00 75 1016.3
20180821075151 74 23 0.0 0.0 0.00 0.00 0.00 75 1016.3
20180821074647 74 0 0.0 1.0 0.00 0.00 0.00 75 1016.3
20180821074143 74 23 0.0 1.0 0.00 0.00 0.00 75 1016.3
20180821073640 74 23 0.0 1.0 0.00 0.00 0.00 75 1016.3
20180821073134 74 248 0.0 1.0 0.00 0.00 0.00 75 1016.3
20180821072628 74 23 0.0 0.0 0.00 0.00 0.00 75 1016.3
20180821072128 74 23 0.0 0.0 0.00 0.00 0.00 75 1016.3
20180821071625 74 203 0.0 0.0 0.00 0.00 0.00 75 1016.3
20180821071121 74 203 0.0 0.0 0.00 0.00 0.00 75 1016.3
20180821070617 74 293 0.0 0.0 0.00 0.00 0.00 75 1016.6
20180821070114 74 248 0.0 0.0 0.00 0.00 0.00 75 1016.3
20180821065610 74 270 0.0 0.0 0.00 0.00 0.00 75 1016.3
20180821065105 74 293 0.0 0.0 0.00 0.00 0.00 75 1016.3
20180821064559 74 270 0.0 0.0 0.00 0.00 0.00 75 1016.3
20180821064059 75 293 0.0 0.0 0.00 0.00 0.00 74 1016.3
20180821063555 75 270 0.0 0.0 0.00 0.00 0.00 74 1015.9
20180821063051 75 0 0.0 0.0 0.00 0.00 0.00 74 1015.9
20180821062548 75 0 0.0 0.0 0.00 0.00 0.00 74 1016.3
20180821062043 75 270 0.0 0.0 0.00 0.00 0.00 73 1015.9
20180821061540 75 293 0.0 0.0 0.00 0.00 0.00 73 1016.3
20180821061036 75 203 0.0 1.0 0.00 0.00 0.00 73 1015.9
20180821060529 76 293 0.0 1.0 0.00 0.00 0.00 73 1015.9
20180821060033 76 45 0.0 0.0 0.00 0.00 0.00 73 1015.9
20180821055524 76 270 0.0 0.0 0.00 0.00 0.00 73 1015.6
20180821055022 76 270 0.0 0.0 0.00 0.00 0.00 71 1015.9
20180821054518 76 270 0.0 0.0 0.00 0.00 0.00 71 1015.6
20180821054014 76 0 0.0 0.0 0.00 0.00 0.00 71 1015.6
20180821053510 76 293 0.0 0.0 0.00 0.00 0.00 71 1015.6
20180821053006 76 248 0.0 0.0 0.00 0.00 0.00 73 1015.6
20180821052459 76 248 0.0 0.0 0.00 0.00 0.00 71 1015.2
20180821051959 76 203 0.0 0.0 0.00 0.00 0.00 71 1015.6
20180821051456 76 203 0.0 0.0 0.00 0.00 0.00 70 1015.6
20180821050952 76 203 0.0 0.0 0.00 0.00 0.00 70 1015.6
20180821050448 76 203 0.0 0.0 0.00 0.00 0.00 70 1015.2
20180821045944 76 270 0.0 0.0 0.00 0.00 0.00 70 1015.2
20180821045440 76 270 0.0 0.0 0.00 0.00 0.00 70 1015.2
20180821044936 77 248 0.0 0.0 0.00 0.00 0.00 70 1015.2
20180821044415 77 270 0.0 0.0 0.00 0.00 0.00 70 1015.2
20180821043912 77 270 0.0 0.0 0.00 0.00 0.00 70 1015.2
20180821043408 77 270 0.0 0.0 0.00 0.00 0.00 70 1015.2
20180821042904 77 270 0.0 0.0 0.00 0.00 0.00 70 1015.2
20180821042400 77 315 0.0 0.0 0.00 0.00 0.00 70 1015.2
20180821041855 78 248 0.0 0.0 0.00 0.00 0.00 70 1015.2
20180821041351 78 270 0.0 0.0 0.00 0.00 0.00 69 1015.2
20180821040848 78 338 0.0 0.0 0.00 0.00 0.00 69 1015.2
20180821040341 78 270 0.0 0.0 0.00 0.00 0.00 69 1015.2
20180821035840 78 270 0.0 0.0 0.00 0.00 0.00 69 1014.8
20180821035336 78 270 0.0 0.0 0.00 0.00 0.00 69 1014.8
20180821034833 78 270 0.0 0.0 0.00 0.00 0.00 69 1014.8
20180821034328 79 270 0.0 0.0 0.00 0.00 0.00 68 1014.8
20180821033824 79 270 0.0 0.0 0.00 0.00 0.00 66 1014.8
20180821033320 79 270 0.0 0.0 0.00 0.00 0.00 65 1014.8
20180821032816 79 315 0.0 0.0 0.00 0.00 0.00 65 1014.8
20180821032311 80 23 0.0 0.0 0.00 0.00 0.00 65 1014.8
20180821031805 80 270 0.0 0.0 0.00 0.00 0.00 65 1014.8
20180821031304 80 23 0.0 0.0 0.00 0.00 0.00 65 1014.8
20180821030801 80 23 0.0 0.0 0.00 0.00 0.00 63 1014.8
20180821030256 81 23 0.0 0.0 0.00 0.00 0.00 63 1014.8
20180821025751 81 45 0.0 0.0 0.00 0.00 0.00 63 1014.5
20180821025248 81 23 0.0 0.0 0.00 0.00 0.00 61 1014.5
20180821024745 81 23 0.0 1.0 0.00 0.00 0.00 61 1014.5
20180821024246 81 23 0.0 1.0 0.00 0.00 0.00 61 1014.5
20180821023742 81 0 0.0 0.0 0.00 0.00 0.00 61 1014.1
20180821023239 82 23 0.0 2.0 0.00 0.00 0.00 60 1014.1
20180821022737 83 338 0.0 2.0 0.00 0.00 0.00 58 1014.1
20180821022235 83 45 0.0 1.0 0.00 0.00 0.00 58 1013.8
20180821021728 83 0 0.0 3.0 0.00 0.00 0.00 58 1013.8
20180821021223 83 23 0.0 3.0 0.00 0.00 0.00 56 1013.8
20180821020716 83 45 0.0 2.0 0.00 0.00 0.00 56 1013.8
20180821020216 83 23 0.0 1.0 0.00 0.00 0.00 56 1013.5
20180821015712 84 90 0.0 1.0 0.00 0.00 0.00 55 1013.5
20180821015209 84 293 0.0 0.0 0.00 0.00 0.00 55 1013.8
20180821014706 84 45 0.0 0.0 0.00 0.00 0.00 55 1013.5
20180821014201 85 270 0.0 0.0 0.00 0.00 0.00 55 1013.5
20180821013658 84 293 0.0 0.0 0.00 0.00 0.00 55 1013.5
20180821013154 85 203 0.0 1.0 0.00 0.00 0.00 54 1013.5
20180821012647 85 203 0.0 1.0 0.00 0.00 0.00 53 1013.1
20180821012146 85 45 0.0 2.0 0.00 0.00 0.00 51 1013.1
20180821011642 86 23 0.0 2.0 0.00 0.00 0.00 50 1013.1
20180821011139 86 0 0.0 2.0 0.00 0.00 0.00 50 1013.1
20180821010635 87 23 0.0 0.0 0.00 0.00 0.00 50 1013.1
20180821010132 87 0 0.0 1.0 0.00 0.00 0.00 50 1013.1
20180821005628 87 45 0.0 2.0 0.00 0.00 0.00 49 1012.8
20180821005123 88 293 0.0 2.0 0.00 0.00 0.00 49 1012.8
20180821004617 88 113 1.0 3.0 0.00 0.00 0.00 48 1012.8
20180821004117 88 225 1.0 3.0 0.00 0.00 0.00 48 1012.8
20180821003613 89 45 1.0 5.0 0.00 0.00 0.00 48 1012.8
20180821003109 89 293 2.0 4.0 0.00 0.00 0.00 46 1012.4
20180821002607 89 0 1.0 4.0 0.00 0.00 0.00 46 1012.4
20180821002102 90 23 1.0 5.0 0.00 0.00 0.00 45 1012.1
20180821001558 90 293 2.0 5.0 0.00 0.00 0.00 45 1012.1
20180821001054 90 23 3.0 5.0 0.00 0.00 0.00 45 1012.1
20180821000546 91 23 1.0 2.0 0.00 0.00 0.00 45 1012.1
20180821000046 91 225 1.0 6.0 0.00 0.00 0.00 45 1012.1
20180820235542 91 45 3.0 6.0 0.00 0.00 0.00 44 1012.1
20180820235040 92 338 1.0 6.0 0.00 0.00 0.00 43 1012.1
20180820234537 93 23 2.0 6.0 0.00 0.00 0.00 41 1012.1
20180820234033 96 23 1.0 3.0 0.00 0.00 0.00 39 1012.1
20180820233528 97 225 2.0 3.0 0.00 0.00 0.00 37 1012.1
20180820233024 99 270 1.0 4.0 0.00 0.00 0.00 35 1012.1
20180820232518 100 293 1.0 4.0 0.00 0.00 0.00 34 1012.1
20180820232016 99 270 1.0 3.0 0.00 0.00 0.00 35 1012.1
20180820231513 100 45 2.0 3.0 0.00 0.00 0.00 34 1012.1
20180820231010 100 293 1.0 3.0 0.00 0.00 0.00 32 1012.1
20180820230506 100 180 2.0 4.0 0.00 0.00 0.00 34 1011.8
20180820230001 98 158 1.0 3.0 0.00 0.00 0.00 35 1012.1
20180820225455 0 0.0 0.0 0.00 0.00 0.00 1011.8
20180820224954 0 0.0 0.0 0.00 0.00 0.00 1012.1
20180820224415 0 0.0 0.0 0.00 0.00 0.00 1012.1
20180820223913 98 0 1.0 2.0 0.00 0.00 0.00 37 1012.1
20180820223411 98 0 1.0 2.0 0.00 0.00 0.00 37 1012.1
20180820222906 99 158 2.0 3.0 0.00 0.00 0.00 37 1012.1
20180820222345 99 158 2.0 3.0 0.00 0.00 0.00 37 1012.1
20180820221839 0 23 0.0 0.0 0.00 0.00 0.00 1012.1
20180820221337 0 270 0.0 0.0 0.00 0.00 0.00 1012.1
20180820220835 0 0.0 0.0 0.00 0.00 0.00 1012.1
20180820220328 99 338 4.0 5.0 0.00 0.00 0.00 37 1012.1
20180820215825 99 338 4.0 5.0 0.00 0.00 0.00 37 1012.4
20180820215322 102 45 1.0 3.0 0.00 0.00 0.00 34 1012.1
20180820214817 102 338 2.0 3.0 0.00 0.00 0.00 34 1012.1
20180820214314 102 45 2.0 3.0 0.00 0.00 0.00 32 1012.1
20180820213810 101 225 1.0 4.0 0.00 0.00 0.00 35 1012.1
20180820213304 98 338 2.0 4.0 0.00 0.00 0.00 39 1012.4
20180820212802 101 23 2.0 4.0 0.00 0.00 0.00 37 1012.4
20180820212254 98 293 1.0 3.0 0.00 0.00 0.00 39 1012.4
20180820211752 98 0 2.0 3.0 0.00 0.00 0.00 39 1012.4
20180820211248 96 90 1.0 3.0 0.00 0.00 0.00 40 1012.4
20180820210744 0 225 0.0 0.0 0.00 0.00 0.00 1012.4
20180820210245 0 0.0 0.0 0.00 0.00 0.00 1012.8
20180820205736 0 0.0 0.0 0.00 0.00 0.00 1012.8
20180820205231 0 0.0 0.0 0.00 0.00 0.00 1012.8
20180820204729 0 0.0 0.0 0.00 0.00 0.00 1013.1
20180820204224 98 338 2.0 3.0 0.00 0.00 0.00 39 1012.8
20180820203721 98 338 2.0 3.0 0.00 0.00 0.00 39 1013.1
20180820203217 98 270 2.0 5.0 0.00 0.00 0.00 37 1013.1
20180820202713 98 158 3.0 6.0 0.00 0.00 0.00 39 1013.1
20180820202209 98 135 2.0 7.0 0.00 0.00 0.00 39 1013.1
20180820201705 98 0 3.0 7.0 0.00 0.00 0.00 37 1013.5
20180820201203 98 203 3.0 6.0 0.00 0.00 0.00 37 1013.5
20180820200704 98 338 2.0 6.0 0.00 0.00 0.00 37 1013.5
20180820200200 98 225 2.0 4.0 0.00 0.00 0.00 37 1013.8
20180820195656 97 293 2.0 4.0 0.00 0.00 0.00 37 1013.5
20180820195155 98 23 2.0 4.0 0.00 0.00 0.00 39 1013.8
20180820194641 98 23 1.0 3.0 0.00 0.00 0.00 39 1013.8
20180820194136 95 225 1.0 5.0 0.00 0.00 0.00 40 1013.8
20180820193634 97 45 2.0 6.0 0.00 0.00 0.00 37 1013.8
20180820193128 96 338 2.0 6.0 0.00 0.00 0.00 40 1013.8
20180820192625 97 248 2.0 3.0 0.00 0.00 0.00 40 1013.8
20180820192113 96 23 2.0 4.0 0.00 0.00 0.00 40 1013.8